Location: Launay
(47.2429°N, 1.5727°E)
Time: 02:02:27
(UTC+00:00)

ISS - Visible Passes

Search period start: 11 May 2026 00:00
Search period end: 21 May 2026 00:00
Orbit: 414 x 424 km, 51.6° (Epoch: 10 May)

Date Brightness Start Highest point End Pass type
(mag) Time Alt. Az. Time Alt. Az. Time Alt. Az.
11 May -2.8 21:18:41 10° W 21:21:56 49° NNW 21:25:13 10° ENE visible
11 May -2.4 22:55:58 10° WNW 22:59:09 38° N 22:59:21 38° NNE visible
12 May -3.3 20:30:56 10° WSW 20:34:15 62° NNW 20:37:34 10° ENE visible
12 May -2.3 22:08:15 10° WNW 22:11:24 37° N 22:13:26 18° ENE visible
12 May -1.5 23:45:13 10° WNW 23:46:22 20° WNW 23:46:22 20° WNW visible
13 May -2.3 21:20:30 10° WNW 21:23:39 38° N 21:26:48 10° ENE visible
13 May -2.7 22:57:35 10° WNW 23:00:21 45° NNW 23:00:21 45° NNW visible
14 May -2.5 20:32:41 10° W 20:35:53 41° N 20:39:06 10° ENE visible
14 May -2.6 22:09:54 10° WNW 22:13:07 42° N 22:14:17 30° ENE visible
14 May -1.1 23:46:43 10° WNW 23:47:13 14° WNW 23:47:13 14° WNW visible
15 May -2.4 21:22:10 10° WNW 21:25:21 38° N 21:28:13 12° ENE visible
15 May -2.4 22:59:02 10° WNW 23:01:07 35° WNW 23:01:07 35° WNW visible
16 May -2.3 20:34:24 10° WNW 20:37:33 37° N 20:40:42 10° ENE visible
16 May -3.5 22:11:21 10° WNW 22:14:41 65° NNE 22:15:02 59° ENE visible
17 May -3.0 21:23:40 10° WNW 21:26:57 50° NNE 21:28:57 21° E visible
17 May -1.7 23:00:33 10° WNW 23:01:52 21° W 23:01:52 21° W visible
18 May -2.7 20:35:56 10° WNW 20:39:09 42° N 20:42:22 10° E visible
18 May -3.6 22:12:46 10° WNW 22:15:46 59° WSW 22:15:46 59° WSW visible
19 May -3.8 21:25:01 10° WNW 21:28:23 88° NNE 21:29:41 34° ESE visible
19 May -1.0 23:02:27 10° W 23:02:37 11° W 23:02:37 11° W visible
20 May -3.5 20:37:18 10° WNW 20:40:38 64° NNE 20:43:36 12° ESE visible
20 May -2.2 22:14:21 10° W 22:16:32 25° WSW 22:16:32 25° WSW visible
